Content
SEND FEEDBACK

Daily
Averages
Monthly
Summary
United States of America

OVERBROOK, KANSAS


Home > North America > United States > Kansas
Elevation: 1180 feet     Latitude: 38 46N     Longitude: 095 36W

WEATHER
 
SELECT A DAY
Number of Records: 187,295;   Date Range: 1/1/95 - 7/29/14
 
SHARE

PRINT THIS DATA

[ ← Previous Day ]
WEATHER ALMANAC - JANUARY 31, 2013
[ Next Day → ]
[ °C ]   °F
Weather ElementAverageHighLow
Temperature16.8 °F21 °F (4:53 am)8.1 °F (8:53 pm)
Dewpoint8.7 °F18 °F (4:53 am)1 °F (7:53 pm)
Humidity71.1 %89 % (3:53 am)54 % (4:53 pm)
Barometer30.25 in30.51 in (8:53 pm)29.98 in (4:53 am)
Wind Speed10.2 mph24.2 mph (12:53 pm)
Wind Gust32.2 mph (12:53 pm)
Weather ElementAverage
Visibility9.9 mi
Wind DirectionSW (226.7 °)

Weather ElementTotal
Precipitation---
Heating Degree Days50.5 (Base 65)
Averaged from 21 records on January 31, 2013
WEATHER CONDITIONS BREAKOUT
WIND DIRECTION BREAKOUT
WEATHER BY HOUR - JANUARY 31, 2013
[ °C ]   °F
Local TimeTemperatureDewpointHumidityBarometerVisibilityWind DirectionWind SpeedGust SpeedPrecipitationEventsConditions
1:53 AM17.1 °F12.9 °F84 %30.00 in10.0 miCalmPartly Cloudy
2:53 AM19.0 °F15.1 °F85 %30.00 in10.0 miCalmOvercast
3:53 AM19.9 °F17.1 °F89 %29.99 in10.0 miCalmMostly Cloudy
4:53 AM21.0 °F18.0 °F88 %29.98 in10.0 miSSW (200°)3.5 mphMostly Cloudy
5:53 AM21.0 °F17.1 °F85 %30.01 in10.0 miWest (280°)4.6 mphPartly Cloudy
6:53 AM21.0 °F16.0 °F81 %30.06 in10.0 miNNW (340°)6.9 mphMostly Cloudy
7:53 AM21.0 °F14.0 °F74 %30.10 in10.0 miNorth (360°)8.1 mphMostly Cloudy
8:53 AM21.0 °F12.0 °F68 %30.15 in10.0 miNNW (340°)18.4 mphOvercast
9:53 AM21.0 °F12.0 °F68 %30.18 in10.0 miNorth (350°)17.3 mphOvercast
10:53 AM19.9 °F10.0 °F65 %30.24 in8.0 miNNW (330°)19.6 mph24.2 mph0.00 inSnowLight Snow
11:53 AM19.9 °F10.0 °F65 %30.29 in10.0 miNW (320°)20.7 mph27.6 mphMostly Cloudy
12:53 PM19.9 °F9.0 °F62 %30.30 in10.0 miNNW (330°)24.2 mph32.2 mphMostly Cloudy
2:53 PM17.1 °F3.9 °F56 %30.33 in10.0 miNNW (330°)23.0 mph29.9 mphClear
3:53 PM17.1 °F3.9 °F56 %30.36 in10.0 miNNW (330°)16.1 mph27.6 mphClear
4:53 PM16.0 °F1.9 °F54 %30.37 in10.0 miNNW (340°)21.9 mph29.9 mphClear
5:53 PM14.0 °F1.9 °F59 %30.40 in10.0 miNNW (330°)15.0 mphClear
6:53 PM12.0 °F1.9 °F64 %30.43 in10.0 miNNW (330°)9.2 mphClear
7:53 PM10.9 °F1.0 °F64 %30.45 in10.0 miCalmClear
8:53 PM8.1 °F1.0 °F73 %30.51 in10.0 miWSW (250°)5.8 mphClear
10:53 PM8.1 °F3.0 °F80 %30.51 in10.0 miCalmClear
11:53 PM8.1 °F1.0 °F73 %30.51 in10.0 miCalmClear
Hourly data recorded from KFOE, located miles away from Overbrook, Kansas







STORIES FROM OUR PARTNERS